Location: Eppenbrunn
(49.1158°N, 7.5601°E)
Time: 13:44:21
(UTC+00:00)

Cosmos 962 Rocket - Pass Details

Date: 09 April 2020
Orbit: 950 x 1000 km, 82.9° (Epoch: 25 May)

Event Time Altitude Azimuth Distance (km) Brightness Sun altitude
Rises 19:18:31 0° 352° (N) 3,658 8.0 -10.8°
Reaches altitude 10° 19:21:04 10° 355° (N) 2,702 7.3 -11.2°
Maximum altitude 19:27:13 69° 78° (ENE) 1,019 4.4 -12.1°
Drops below altitude 10° 19:33:18 10° 162° (SSE) 2,669 6.4 -13.0°
Enters shadow 19:34:10 - 163° (SSE) 2,996 6.6 -13.1°
